Weather History for North Platte, NE

Change the Weather History Date:

Saturday, March 22, 2014

  Actual Average Record
Temperature  
Mean Temperature 20 °F 40 °F  
Max Temperature 31 °F 55 °F 86 °F (1910)
Min Temperature 8 °F 25 °F -1 °F (1898)
Degree Days  
Heating Degree Days 45 25  
Month to date heating degree days 635 623  
Since 1 July heating degree days 5826 5651  
Cooling Degree Days 0 0  
Month to date cooling degree days 0 0  
Year to date cooling degree days 0 0  
Moisture  
Dew Point 18 °F    
Average Humidity 77    
Maximum Humidity 84    
Minimum Humidity 69    
Precipitation  
Precipitation 0.19 in 0.03 in 1.10 in (1966)
Month to date precipitation 0.43 0.67  
Year to date precipitation 1.48 1.51  
Snow  
Snow 2.70 in 0.20 in 8.90 in (1894)
Month to date snowfall 6.1 3.2  
Since 1 July snowfall 28.5 24.1  
Snow Depth 0.00 in    
Sea Level Pressure  
Sea Level Pressure 30.40 in    
Wind  
Wind Speed 9 mph (NE)    
Max Wind Speed 17 mph    
Max Gust Speed 21 mph    
Visibility 5 miles    
Events Snow    
T = Trace of Precipitation, MM = Missing Value Source: NWS Daily Summary

Daily Weather History Graph

Daily Weather History Graph

Search for Another Location

Airport:

Trip Planner

Search our weather history database for the weather conditions in past years. The results will help you decide how hot, cold, wet, or windy it might be!

Date:

Astronomy

Mar. 22, 2014 Rise Set
Actual Time 7:42 AM CDT 7:57 PM CDT
Civil Twilight 7:15 AM CDT 8:24 PM CDT
Nautical Twilight 6:42 AM CDT 8:56 PM CDT
Astronomical Twilight 6:10 AM CDT 9:29 PM CDT
Moon 1:20 AM CDT 11:25 AM CDT
Length of Visible Light 13h 09m
Length of Day
12h 14m
Waning Gibbous, 65% of the Moon is Illuminated
Mar 22
Waning Gibbous
Mar 23
Last Quarter
Mar 30
New
Apr 7
First Quarter
Apr 15
Full

Hourly Weather History & Observations

Time (CDT) Temp. Windchill Dew Point Humidity Pressure Visibility Wind Dir Wind Speed Gust Speed Precip Events Conditions
12:53 AM 30.9 °F 21.7 °F 21.0 °F 67% 30.32 in 10.0 mi NE 11.5 mph - N/A   Overcast
1:53 AM 30.0 °F 20.0 °F 21.0 °F 69% 30.31 in 10.0 mi NNE 12.7 mph - N/A   Overcast
2:41 AM 28.0 °F 16.5 °F 19.9 °F 72% 30.27 in 10.0 mi NNE 15.0 mph - N/A   Overcast
2:53 AM 28.0 °F 17.5 °F 19.9 °F 72% 30.32 in 10.0 mi NNE 12.7 mph - N/A   Overcast
3:53 AM 27.0 °F 17.3 °F 19.9 °F 75% 30.31 in 10.0 mi NE 10.4 mph - N/A   Overcast
4:21 AM 27.0 °F 17.3 °F 19.0 °F 72% 30.27 in 10.0 mi NE 10.4 mph - N/A   Overcast
4:53 AM 27.0 °F 18.0 °F 19.0 °F 72% 30.32 in 10.0 mi NNE 9.2 mph - N/A   Overcast
5:53 AM 27.0 °F 18.7 °F 19.0 °F 72% 30.33 in 10.0 mi NNE 8.1 mph - N/A   Overcast
6:53 AM 26.1 °F 16.2 °F 19.0 °F 75% 30.36 in 10.0 mi NE 10.4 mph - N/A   Overcast
7:53 AM 25.0 °F 14.2 °F 18.0 °F 75% 30.38 in 7.0 mi NE 11.5 mph - 0.00 in Snow Light Snow
8:53 AM 25.0 °F 14.8 °F 19.0 °F 78% 30.40 in 1.8 mi NE 10.4 mph - 0.00 in Snow Light Snow
9:03 AM 24.1 °F 12.5 °F 19.0 °F 81% 30.32 in 1.2 mi NE 12.7 mph - 0.01 in Snow Light Snow
9:27 AM 24.1 °F 13.1 °F 19.0 °F 81% 30.33 in 0.8 mi ENE 11.5 mph - 0.01 in Snow Light Snow
9:34 AM 24.1 °F 13.1 °F 19.0 °F 81% 30.34 in 1.0 mi ENE 11.5 mph - 0.01 in Snow Light Snow
9:53 AM 24.1 °F 13.1 °F 19.0 °F 81% 30.43 in 1.0 mi ENE 11.5 mph - 0.02 in Snow Light Snow
10:09 AM 24.1 °F 13.1 °F 19.0 °F 81% 30.34 in 0.5 mi ENE 11.5 mph - 0.00 in Snow Snow
10:53 AM 23.0 °F 10.6 °F 18.0 °F 81% 30.44 in 1.0 mi ENE 13.8 mph - 0.02 in Snow Light Snow
10:57 AM 23.0 °F 10.1 °F 18.0 °F 81% 30.35 in 1.0 mi ENE 15.0 mph - 0.00 in Snow Light Snow
11:27 AM 23.0 °F 11.7 °F 18.0 °F 81% 30.35 in 1.5 mi ENE 11.5 mph - 0.01 in Snow Light Snow
11:36 AM 23.0 °F 11.1 °F 18.0 °F 81% 30.35 in 0.8 mi ENE 12.7 mph - 0.01 in Snow Light Snow
11:53 AM 23.0 °F 11.7 °F 18.0 °F 81% 30.44 in 0.8 mi NE 11.5 mph - 0.02 in Snow Light Snow
12:08 PM 23.0 °F 11.1 °F 18.0 °F 81% 30.35 in 0.5 mi ENE 12.7 mph - 0.01 in Snow Snow
12:53 PM 23.0 °F 11.7 °F 18.0 °F 81% 30.45 in 0.5 mi ENE 11.5 mph - 0.04 in Snow Snow
1:04 PM 21.9 °F 10.4 °F 17.1 °F 82% 30.37 in 0.5 mi ENE 11.5 mph - 0.00 in Snow Snow
1:43 PM 23.0 °F 12.4 °F 18.0 °F 81% 30.36 in 0.8 mi ENE 10.4 mph - 0.02 in Snow Light Snow
1:53 PM 23.0 °F 13.1 °F 18.0 °F 81% 30.46 in 0.8 mi NE 9.2 mph - 0.02 in Snow Light Snow
2:53 PM 23.0 °F 10.6 °F 18.0 °F 81% 30.46 in 0.8 mi NNE 13.8 mph - 0.04 in Snow Light Snow
3:25 PM 23.0 °F 10.6 °F 17.1 °F 78% 30.37 in 1.0 mi NNE 13.8 mph - 0.01 in Snow Light Snow
3:53 PM 23.0 °F 11.7 °F 18.0 °F 81% 30.47 in 1.0 mi NE 11.5 mph - 0.01 in Snow Light Snow
4:06 PM 24.1 °F 13.7 °F 17.1 °F 75% 30.37 in 1.5 mi NE 10.4 mph - 0.00 in Snow Light Snow
4:12 PM 24.1 °F 13.1 °F 18.0 °F 77% 30.36 in 1.2 mi NNE 11.5 mph - 0.00 in Snow Light Snow
4:51 PM 24.8 °F 13.4 °F 17.6 °F 74% 30.36 in 1.8 mi NNE 12.7 mph - 0.01 in Snow Light Snow
4:53 PM 24.1 °F 13.1 °F 18.0 °F 77% 30.46 in 1.8 mi NNE 11.5 mph - 0.01 in Snow Light Snow
5:04 PM 24.1 °F 13.1 °F 19.0 °F 81% 30.36 in 1.0 mi NE 11.5 mph - 0.00 in Snow Light Snow
5:19 PM 24.1 °F 13.7 °F 19.0 °F 81% 30.37 in 1.0 mi NNE 10.4 mph - 0.01 in Snow Light Snow
5:25 PM 24.1 °F 13.1 °F 18.0 °F 77% 30.37 in 1.5 mi NNE 11.5 mph - 0.01 in Snow Light Snow
5:53 PM 24.1 °F 13.1 °F 17.1 °F 75% 30.48 in 2.5 mi NNE 11.5 mph - 0.01 in Snow Light Snow
6:00 PM 24.1 °F 12.5 °F 15.1 °F 69% 30.38 in 9.0 mi NE 12.7 mph - 0.00 in   Overcast
6:25 PM 23.0 °F 11.1 °F 17.1 °F 78% 30.39 in 3.0 mi North 12.7 mph - 0.00 in Snow Light Snow
6:32 PM 21.9 °F 8.2 °F 16.0 °F 78% 30.38 in 2.0 mi NNE 16.1 mph - 0.00 in Snow Light Snow
6:46 PM 21.9 °F 8.7 °F 15.1 °F 75% 30.39 in 4.0 mi NNE 15.0 mph - 0.00 in Snow Light Snow
6:53 PM 21.9 °F 9.2 °F 15.1 °F 75% 30.50 in 3.0 mi NNE 13.8 mph - 0.00 in Snow Light Snow
7:53 PM 21.0 °F 13.4 °F 15.1 °F 78% 30.54 in 10.0 mi NNE 5.8 mph - 0.00 in   Overcast
8:53 PM 19.0 °F 13.9 °F 15.1 °F 85% 30.56 in 10.0 mi NNW 3.5 mph - N/A   Scattered Clouds
9:05 PM 18.0 °F 9.8 °F 14.0 °F 84% 30.45 in 10.0 mi NNW 5.8 mph - N/A   Mostly Cloudy
9:53 PM 21.0 °F 16.2 °F 15.1 °F 78% 30.58 in 10.0 mi NNW 3.5 mph - N/A   Overcast
10:53 PM 19.9 °F 12.1 °F 14.0 °F 78% 30.59 in 10.0 mi NNW 5.8 mph - N/A   Overcast
11:39 PM 16.0 °F 10.4 °F 10.9 °F 81% 30.48 in 10.0 mi NNW 3.5 mph - N/A   Partly Cloudy
11:53 PM 12.0 °F 5.9 °F 8.1 °F 84% 30.62 in 10.0 mi NW 3.5 mph - N/A   Clear